Theta_e
279 279 278 277 277 277 278 278 278 278 279 280 280 280 281 283 283 282 283 284 283 282 282 282 282 282 283 286 289 290 291 291 292 292 293 293 293 293 294 294 294 294 294 295 295 295 295 296 296 296 295 295 295 295 295 295 295 296 296 296 296 296 296 297 297 297 297 298 298 299 300 300 300 300 300 300 300 300 300 301 301 301 301 301 301 301
278 279 278 277 277 277 279 278 277 278 278 279 279 280 281 280 280 281 281 282 282 282 282 282 282 282 281 284 287 290 290 291 292 292 293 293 293 293 294 294 294 294 295 295 295 295 295 295 294 294 294 294 294 294 294 294 295 295 295 296 296 296 296 296 297 297 297 298 298 298 299 299 300 300 300 299 300 299 299 300 300 300 300 300 300 300
277 278 278 277 277 277 279 278 278 278 278 278 279 280 279 279 280 280 281 282 282 282 282 282 282 282 282 283 286 289 290 291 292 292 292 293 293 293 294 294 294 294 294 294 294 294 294 294 294 294 293 294 294 294 294 294 295 295 295 295 295 295 296 296 296 296 297 297 298 298 298 298 299 299 299 299 299 299 299 299 299 299 300 300 300 300
277 277 278 278 278 278 278 279 278 278 279 279 280 279 279 279 280 280 281 281 282 282 282 282 282 282 282 283 285 288 290 291 292 292 292 293 293 293 294 294 294 294 294 294 294 293 293 293 293 293 293 294 294 294 294 294 294 295 295 295 295 295 295 295 295 296 296 296 296 297 297 297 297 298 298 297 298 298 298 298 298 299 299 299 299 300
277 278 278 278 278 278 279 278 279 279 280 280 279 279 279 279 280 281 281 281 281 282 282 282 282 282 282 283 285 287 290 291 292 292 293 293 293 293 293 293 293 293 293 293 293 293 293 293 293 293 293 293 294 294 294 294 294 294 294 294 294 294 294 294 294 294 294 295 295 295 296 296 296 297 297 297 297 297 297 298 298 298 299 299 299 300
277 278 278 278 278 279 279 279 280 280 279 279 279 279 279 280 280 281 281 281 281 282 282 282 283 283 283 283 285 288 290 291 292 292 292 292 293 292 292 292 292 292 292 292 292 293 293 293 293 293 293 293 293 293 294 294 294 293 293 293 293 293 293 293 293 293 293 294 294 294 295 295 296 296 296 296 296 296 296 297 297 298 298 298 299 299
277 278 278 278 279 279 280 280 280 280 280 279 279 280 280 280 280 280 280 281 281 282 282 283 283 283 283 284 286 288 289 290 291 291 292 292 292 292 291 292 292 292 292 292 292 292 292 292 292 293 293 293 293 293 293 293 292 292 292 292 292 292 292 292 293 293 293 293 293 293 294 294 294 295 295 295 295 295 296 296 297 297 297 298 298 299
277 277 278 278 278 279 279 280 280 280 280 279 279 279 280 280 280 280 280 281 281 281 282 282 283 283 283 284 285 287 287 287 287 288 288 289 290 290 290 291 291 291 292 292 292 292 292 292 292 292 292 292 292 292 292 292 292 291 291 291 291 291 292 292 292 292 292 292 293 293 293 293 293 294 294 294 294 295 295 296 296 297 297 297 298 298
277 277 277 277 278 278 278 279 280 280 280 280 279 279 279 279 279 280 280 280 281 281 282 282 282 283 283 283 284 285 286 286 285 285 286 286 286 287 289 290 291 291 291 291 291 291 291 291 291 291 291 291 291 291 291 291 291 291 291 291 291 291 291 291 291 292 292 292 292 292 292 293 293 293 293 293 294 294 294 295 295 296 296 297 297 298
277 277 277 278 278 278 278 278 279 279 279 280 280 280 279 279 279 279 279 280 280 281 282 282 282 282 283 282 282 283 284 286 287 288 288 287 288 288 289 289 289 289 290 291 291 291 291 291 290 290 290 290 290 290 290 290 290 290 290 290 290 290 290 291 291 291 291 292 292 292 292 292 292 293 293 293 294 294 294 294 295 295 295 296 297 297
277 277 277 278 278 279 279 279 279 280 279 279 280 280 280 280 279 278 278 279 280 281 282 282 282 282 282 282 282 282 283 283 284 286 288 288 289 289 289 289 288 289 289 289 289 289 289 290 290 290 290 290 290 290 289 289 289 289 289 289 289 290 290 290 290 291 291 291 292 292 292 292 293 293 293 294 294 294 294 294 294 294 295 295 296 297
277 277 278 278 278 279 279 279 280 280 280 279 279 279 279 280 280 279 278 279 279 280 281 281 282 282 282 282 282 282 282 282 282 283 283 284 285 286 286 286 286 287 287 288 288 288 288 289 289 289 289 288 289 289 289 288 289 289 289 289 289 289 289 290 290 290 291 291 292 293 293 293 293 294 294 294 294 294 294 294 294 294 295 295 295 296
277 278 277 278 278 278 278 279 279 279 280 279 279 278 278 279 280 280 280 279 280 280 281 281 281 282 282 282 282 282 282 282 282 282 282 282 282 282 282 283 283 283 283 284 284 284 286 287 288 288 288 288 288 288 288 288 288 288 288 288 289 289 289 290 290 291 291 292 292 293 293 293 293 293 293 293 293 293 293 294 294 294 294 295 295 295
277 278 277 277 277 278 278 278 278 279 279 279 279 279 279 280 280 280 280 280 280 281 281 281 281 281 282 282 282 282 281 281 281 281 281 281 281 281 281 282 282 282 282 282 281 282 285 285 285 285 286 286 287 287 287 287 288 288 288 288 289 289 289 290 290 291 291 292 292 292 292 293 293 293 293 293 293 293 293 293 294 294 294 294 295 295
277 277 277 277 277 277 278 278 278 279 279 279 280 280 280 280 280 280 280 279 280 280 280 280 280 280 281 282 281 281 281 281 280 280 280 281 281 281 281 281 281 282 281 281 281 282 284 283 283 282 283 283 284 285 285 286 287 288 288 289 289 289 289 290 290 290 291 291 291 292 292 292 292 293 293 293 293 293 293 293 293 294 294 294 295 295
277 277 276 276 277 277 278 279 279 279 279 280 280 280 280 280 280 279 279 279 279 279 279 279 279 279 280 281 281 281 281 281 280 280 280 280 281 282 281 281 281 281 281 281 281 281 282 282 281 281 282 283 285 286 287 287 287 288 288 288 289 289 289 289 290 290 290 291 291 292 292 292 292 292 292 292 292 293 293 293 293 294 294 294 295 295
277 277 277 277 277 278 279 279 280 280 280 280 280 280 280 280 279 279 279 279 279 279 279 278 277 278 278 280 281 281 282 282 281 280 280 280 281 282 282 281 281 280 280 280 280 281 281 281 281 281 281 283 285 286 287 287 288 288 288 288 289 289 289 290 290 290 290 291 291 292 292 292 292 292 292 292 293 293 293 293 294 294 294 295 295 295
277 277 277 277 277 278 279 280 280 281 281 281 281 280 280 280 279 279 279 279 279 278 278 278 278 278 278 278 280 281 282 282 282 281 280 280 281 281 282 281 280 280 280 280 280 280 280 280 280 281 282 285 286 287 287 287 287 288 288 288 288 289 289 289 290 290 290 291 291 291 291 292 292 292 292 292 293 293 293 293 294 294 294 295 295 296
277 277 277 277 278 279 279 280 281 281 281 281 280 280 279 279 279 279 279 278 278 278 278 278 278 278 278 278 280 281 283 283 282 281 280 279 280 281 281 280 280 279 279 279 280 280 280 280 281 283 285 286 286 287 287 287 287 288 288 288 288 289 289 289 289 290 290 290 291 291 291 291 292 292 292 292 292 292 292 293 293 293 294 294 295 295
278 278 278 279 279 279 280 281 282 282 282 282 282 281 279 278 278 279 279 279 279 279 279 278 278 278 279 279 280 282 283 283 282 280 279 279 279 280 280 279 279 278 278 279 279 280 280 280 281 282 285 285 286 286 287 287 287 287 288 288 288 288 288 289 289 289 290 290 290 290 291 291 291 291 291 291 291 292 292 292 293 293 294 294 295 295
278 278 279 280 280 280 280 281 282 283 285 284 283 281 279 279 279 279 279 279 279 279 279 279 279 279 280 280 281 282 284 283 281 280 279 278 279 279 279 278 278 278 278 278 279 280 280 280 280 281 283 285 286 286 286 287 287 287 287 288 288 288 288 288 289 289 289 290 290 290 291 291 291 291 291 291 291 292 292 293 293 294 294 295 296 296
279 279 280 281 281 281 282 282 284 285 286 285 283 281 280 280 280 280 279 279 279 279 279 279 280 280 281 281 282 283 284 283 281 280 278 277 277 278 279 278 278 278 278 279 279 280 281 280 280 281 283 285 286 286 286 287 287 287 287 287 287 288 288 288 288 288 289 289 289 290 290 290 290 290 291 291 291 292 292 293 294 294 295 295 296 296
281 281 282 282 283 283 284 284 284 285 286 285 283 282 282 281 281 280 280 280 280 280 280 280 281 282 282 283 283 283 283 282 280 279 277 276 276 277 278 279 278 278 278 279 279 280 280 280 280 281 283 285 286 286 286 286 287 287 287 287 287 287 287 288 288 288 288 289 289 289 289 289 290 290 290 291 291 292 292 293 293 294 294 295 295 296
283 283 283 283 284 284 284 284 284 283 283 283 283 283 283 283 282 282 282 281 281 281 281 281 281 282 282 283 283 282 280 279 278 277 276 276 276 277 278 279 279 278 278 279 279 280 280 280 280 281 282 284 285 285 286 286 286 286 286 287 287 287 287 287 287 288 288 288 288 288 289 289 289 290 290 291 291 292 292 292 293 293 294 294 295 295
285 285 285 286 286 286 286 285 285 284 283 282 282 283 283 284 284 284 283 282 282 281 281 281 281 280 280 281 281 280 278 278 278 277 276 276 276 277 278 279 278 278 278 279 280 280 280 280 280 280 280 282 283 285 285 286 286 286 286 286 286 287 287 287 287 287 287 287 288 288 288 289 289 289 290 290 291 291 291 292 292 292 292 293 293 294
289 289 289 289 289 290 290 290 289 289 288 286 284 283 282 282 282 282 282 281 281 281 281 280 279 279 279 279 278 278 278 277 277 277 277 277 276 277 278 279 279 278 278 279 280 280 280 279 279 279 279 280 282 284 285 285 285 286 286 286 286 286 286 286 286 287 287 287 287 288 288 288 289 289 290 290 290 290 290 291 291 291 292 292 293 293
293 293 292 292 292 292 292 292 292 292 292 291 289 287 285 283 282 281 280 281 281 281 280 279 278 278 277 277 277 277 278 278 278 278 277 277 277 277 277 279 279 278 278 279 279 280 280 280 280 279 279 279 280 282 284 284 285 285 286 286 286 286 286 286 286 286 286 287 287 287 288 288 289 289 289 289 290 290 290 290 291 291 291 291 292 292
293 293 293 293 293 293 293 293 293 293 293 293 293 292 289 286 283 281 280 281 281 280 279 278 277 277 277 276 277 277 277 278 278 278 278 277 277 277 277 278 279 279 278 279 279 280 281 280 279 279 278 278 279 280 282 284 284 285 285 285 285 285 285 285 286 286 286 286 287 287 287 288 288 288 289 289 289 289 289 290 290 291 291 290 290 290
291 292 292 292 293 293 293 292 293 293 293 293 293 293 291 288 285 283 281 280 280 279 278 278 277 277 277 276 277 277 277 278 278 278 278 277 277 277 278 278 279 279 278 278 278 279 279 279 279 278 278 279 279 280 280 282 283 283 284 284 284 285 285 285 285 285 286 286 286 287 287 287 288 288 288 288 288 289 289 289 290 290 289 289 289 289
287 288 289 289 290 290 290 290 290 291 292 292 292 292 291 289 286 283 281 280 279 278 277 277 277 277 276 276 276 276 276 277 277 278 277 277 277 277 278 278 279 279 279 277 277 276 276 277 278 278 279 280 280 279 279 280 280 280 281 282 283 283 284 285 285 285 286 286 286 286 286 287 287 287 287 288 288 288 289 289 289 289 288 288 288 288
284 284 285 285 286 287 287 287 287 288 289 290 291 290 290 287 284 281 280 279 278 277 277 277 277 276 276 275 275 275 275 276 277 278 277 277 277 277 278 278 278 279 279 278 276 274 274 275 277 278 279 279 279 279 279 279 279 279 279 280 280 281 283 284 284 285 285 285 285 286 286 286 286 287 287 287 288 288 288 289 289 288 287 287 287 288
283 283 283 284 284 284 284 285 285 285 285 286 286 287 288 286 283 281 280 279 278 277 277 277 277 276 276 276 276 275 276 276 278 280 279 278 278 278 279 278 278 279 279 279 277 275 274 275 276 277 278 279 278 279 279 279 279 279 279 279 279 280 282 283 284 284 284 284 285 285 285 286 286 286 286 287 287 288 288 288 289 288 287 287 287 287
283 283 283 283 283 283 283 283 283 283 283 283 283 283 284 284 284 283 281 280 279 278 278 277 277 277 276 276 276 277 277 277 279 281 281 279 278 279 279 278 278 278 279 279 278 277 276 275 276 277 278 278 278 278 279 279 279 279 279 279 278 279 281 282 282 282 282 283 283 284 285 285 285 286 286 286 287 287 288 288 288 288 288 287 287 287
283 283 283 283 283 282 282 282 282 282 282 282 282 283 282 282 283 283 283 281 280 280 279 278 278 277 276 276 276 277 278 278 281 283 283 280 279 279 279 278 278 278 278 278 278 277 277 276 276 276 277 277 278 278 278 279 279 279 279 278 278 278 279 280 280 281 281 281 281 282 283 283 284 285 285 286 286 287 288 288 288 288 288 288 287 287
283 283 283 283 283 282 282 282 281 282 282 282 282 283 282 282 281 281 282 282 281 281 280 279 279 278 278 277 277 277 277 278 281 283 283 281 279 279 279 278 278 278 278 277 277 277 276 276 277 276 276 276 277 277 278 278 278 279 279 279 279 279 279 279 280 280 280 281 280 280 281 281 282 283 284 285 286 287 287 288 288 288 288 288 288 287
282 283 283 283 282 282 282 282 282 282 282 282 282 282 282 281 281 280 280 281 281 281 281 281 280 280 279 278 278 278 278 279 280 282 283 281 280 279 279 279 279 279 278 277 277 276 276 276 276 277 276 276 275 276 277 278 278 279 279 279 279 279 279 279 280 280 280 280 280 280 281 281 282 282 283 285 286 287 287 287 287 288 288 288 288 288
282 282 282 282 282 282 282 282 282 282 282 281 281 281 281 281 281 281 280 280 280 281 282 282 282 282 282 281 280 280 280 280 281 281 282 281 280 280 279 279 279 280 278 277 277 277 276 276 276 276 276 275 275 275 276 277 278 278 278 278 279 279 279 280 280 280 280 280 280 280 281 281 282 282 283 285 285 286 286 287 287 287 287 287 288 288
281 281 282 282 282 282 282 282 281 281 281 281 281 281 281 280 280 280 280 280 279 279 280 281 281 281 283 283 282 281 281 280 280 280 280 280 280 279 279 279 280 280 279 279 278 277 276 275 274 274 274 275 275 276 277 277 277 277 277 278 279 279 279 279 280 280 280 280 280 281 281 282 282 282 282 283 283 283 283 284 284 285 286 286 287 287
281 281 282 282 282 282 282 282 281 281 281 281 281 281 280 280 280 280 280 279 279 279 279 279 280 280 280 281 282 283 283 281 280 279 279 279 279 279 280 279 279 279 280 279 279 278 276 275 274 274 274 274 275 276 276 276 276 276 277 278 278 278 278 279 279 279 280 280 280 281 281 281 281 281 281 282 282 282 282 282 283 284 284 284 284 286
282 282 282 283 283 283 282 282 282 281 281 281 282 281 280 279 279 278 278 279 279 279 278 278 279 279 280 281 282 282 282 282 282 281 280 279 279 279 279 279 279 279 279 279 279 278 277 276 275 275 275 275 275 275 276 276 276 277 277 277 276 277 278 278 279 279 279 279 280 280 280 280 281 281 281 281 281 281 281 281 282 283 283 283 282 283
282 282 282 283 283 284 283 283 282 281 280 280 279 279 279 278 278 277 277 278 278 279 279 278 278 279 279 279 279 280 280 281 281 281 280 279 278 279 279 279 279 279 279 279 278 278 277 276 276 276 276 275 276 276 276 276 277 278 278 276 276 276 277 278 278 279 279 279 279 280 280 280 281 281 281 281 281 281 282 282 282 282 283 283 283 282
284 283 283 282 282 282 282 281 281 281 280 278 278 278 278 278 277 276 276 276 276 277 277 277 277 277 278 278 279 279 279 279 280 280 280 279 279 278 278 279 279 279 279 278 278 278 278 277 277 276 276 276 276 275 275 276 277 277 277 276 276 276 277 278 278 278 278 278 279 279 280 280 280 280 281 281 281 282 283 283 283 283 284 283 283 283
284 284 283 282 281 281 281 281 281 280 279 278 278 278 278 277 277 277 277 277 277 277 278 278 278 278 278 278 279 279 279 278 279 279 280 279 278 277 278 278 278 278 278 278 277 277 277 278 277 277 277 277 276 275 275 275 276 276 277 277 276 275 274 275 276 277 278 278 279 279 279 279 280 280 280 281 281 282 282 283 284 285 284 284 283 283
284 284 283 282 281 280 281 280 280 279 279 278 278 278 278 277 278 278 279 278 278 278 278 278 278 278 278 278 278 278 279 278 277 277 279 280 280 278 278 277 277 277 277 277 277 276 276 277 277 277 277 277 276 276 275 275 275 275 275 276 276 275 274 275 276 277 277 278 278 279 279 279 280 280 280 281 281 281 282 282 283 283 284 284 283 283
283 282 282 282 281 281 280 279 279 279 279 279 279 278 278 278 278 279 279 278 278 278 278 278 279 278 278 278 278 278 278 278 278 278 277 280 282 282 280 279 277 277 276 276 277 276 276 276 276 276 277 277 276 276 275 275 275 275 276 276 276 276 275 276 276 276 276 277 278 278 279 280 280 280 280 280 280 281 281 282 282 282 283 283 283 283
283 283 282 281 281 281 281 280 279 279 278 279 279 279 278 277 277 278 279 278 278 278 278 278 278 278 277 278 278 278 278 278 278 278 278 278 278 278 279 279 279 278 277 277 277 277 277 276 276 276 276 276 276 276 275 275 275 274 274 275 275 275 275 276 276 276 277 277 277 278 279 280 280 279 279 279 280 280 281 282 282 282 282 282 282 283
282 282 281 281 280 280 280 280 280 279 279 279 279 278 278 277 276 276 277 278 278 278 278 278 278 278 277 278 278 278 278 278 277 277 278 278 277 276 276 277 278 278 278 277 277 277 277 277 277 276 276 275 275 275 275 275 274 274 273 274 274 274 274 275 276 276 277 278 278 279 280 280 279 279 279 279 279 280 280 281 282 282 282 282 282 282
282 282 281 280 280 279 279 279 279 279 278 278 278 278 278 277 277 277 277 277 277 278 278 278 278 278 278 278 278 278 278 278 278 277 277 278 277 276 276 276 276 277 278 278 279 279 278 278 277 277 276 275 274 274 274 274 274 274 274 274 274 274 274 275 276 277 277 278 278 279 280 279 279 278 278 278 278 279 279 280 281 282 282 283 283 282
281 281 280 280 279 279 278 278 278 278 278 277 278 278 277 278 279 279 278 277 277 277 277 277 277 277 277 278 278 278 279 279 278 278 277 277 277 277 276 275 275 275 276 277 277 278 278 278 278 278 278 276 275 274 273 274 274 274 274 274 274 274 274 275 276 276 277 277 278 279 279 278 278 278 277 277 277 277 278 279 280 281 282 283 283 283
281 280 279 279 278 278 277 277 278 278 278 277 277 277 277 277 277 278 278 278 278 278 277 277 277 277 277 277 278 278 278 278 278 278 277 277 277 276 276 275 275 276 277 276 277 277 276 277 278 279 280 280 278 276 274 274 274 274 274 274 274 274 274 274 275 276 276 277 277 277 277 277 277 277 277 276 276 276 277 278 279 280 281 282 283 283
281 280 279 279 278 278 277 277 277 277 277 277 277 278 277 277 277 277 277 277 277 277 277 277 277 277 277 277 277 278 278 278 278 277 277 277 276 276 277 277 276 276 276 276 276 275 275 275 275 276 278 281 281 279 276 274 273 273 273 273 274 274 274 274 275 276 276 276 276 276 275 275 275 276 276 276 276 276 276 277 278 279 281 281 282 282
Wind_Speed
4 3 3 4 4 4 5 6 6 6 6 6 5 5 6 7 7 8 9 10 9 8 8 9 10 11 13 18 21 23 25 26 26 26 26 27 27 27 27 28 28 28 29 29 30 30 31 31 31 31 32 32 32 32 33 33 33 34 34 34 34 34 35 35 35 35 36 36 36 37 37 38 38 37 37 37 37 37 37 38 37 37 36 36 36 36
4 3 3 4 5 5 5 6 6 6 6 6 6 5 5 6 6 6 7 8 8 8 8 9 10 11 12 14 18 22 24 25 26 26 26 26 27 27 27 27 28 28 29 29 30 30 30 31 31 31 32 32 32 32 33 33 33 33 34 34 34 34 34 35 35 35 35 36 36 36 37 37 37 37 37 37 37 37 37 37 37 37 36 36 35 35
4 4 3 4 5 5 6 6 6 6 6 6 6 6 6 7 7 6 6 7 8 8 8 8 9 10 11 13 17 21 23 24 25 26 26 26 26 26 27 27 28 28 29 29 29 30 30 30 31 31 31 32 32 32 33 33 33 33 33 34 34 34 34 34 34 34 35 35 35 36 36 36 37 37 37 37 37 37 37 37 37 36 35 35 35 35
4 4 4 4 4 5 6 6 5 5 6 6 7 7 7 7 7 7 7 7 7 8 8 9 9 10 10 11 14 18 21 23 24 25 25 26 26 26 27 27 28 28 28 29 29 29 30 30 30 31 31 31 32 32 32 33 33 33 33 33 33 33 33 33 33 34 34 34 35 35 35 35 36 36 36 36 36 37 37 37 36 36 35 35 35 35
4 4 4 4 4 5 6 5 5 5 5 6 6 6 6 6 6 6 7 7 8 8 8 9 9 9 9 9 11 16 20 22 24 25 25 25 26 26 26 27 27 28 28 28 29 29 29 30 30 30 31 31 31 32 32 32 32 33 33 33 33 33 33 33 33 34 34 35 35 35 35 35 35 35 35 35 36 36 36 36 36 36 35 35 35 35
5 5 4 4 4 5 5 5 5 5 5 5 5 6 6 6 6 6 7 7 7 8 7 7 8 9 9 9 12 16 19 21 23 24 24 24 25 25 26 26 27 27 28 28 28 29 29 29 29 30 30 30 31 31 31 32 32 32 32 32 32 33 33 33 34 34 35 35 35 35 35 34 34 34 35 35 36 36 36 36 36 35 35 35 35 36
4 4 4 4 4 4 4 5 5 5 4 5 5 5 6 6 6 6 7 7 7 7 7 7 8 8 9 10 12 15 17 19 20 21 22 23 24 24 25 26 26 27 27 28 28 28 28 29 29 29 30 30 30 31 31 31 32 32 32 32 33 33 33 34 34 34 34 35 35 35 35 34 34 34 35 35 35 35 36 36 36 35 35 35 35 36
5 4 4 4 4 5 5 5 5 5 5 5 5 5 6 5 6 6 7 7 7 7 7 7 7 8 8 8 10 11 11 12 13 14 16 18 20 21 22 24 25 26 26 27 27 28 28 28 29 29 29 29 30 30 31 31 31 32 32 32 33 33 33 33 34 34 34 34 34 34 34 34 34 34 34 34 34 35 35 36 36 36 35 35 35 35
6 6 5 5 5 5 6 6 5 5 5 5 5 5 6 6 6 6 6 6 6 6 6 7 7 7 7 6 6 7 8 9 9 10 12 12 14 16 19 20 22 24 25 26 26 27 27 28 28 29 29 29 30 30 31 31 31 32 32 32 32 33 33 33 33 33 33 34 34 34 34 34 34 34 34 34 34 35 35 36 36 36 35 35 35 35
7 7 6 6 6 6 6 6 6 5 5 5 5 6 6 6 6 6 6 7 6 5 5 6 7 7 6 5 4 5 6 9 11 14 15 15 16 18 18 19 19 20 23 24 26 26 27 27 28 28 29 29 30 30 30 30 31 31 31 32 32 32 32 33 33 33 33 33 33 34 34 34 34 34 34 34 34 35 35 36 36 35 35 35 35 35
7 7 6 6 6 6 6 6 6 5 5 5 5 6 6 6 6 6 7 7 6 5 5 6 6 5 5 4 4 4 5 7 9 12 15 17 18 19 19 18 18 20 22 23 24 25 26 26 27 28 28 28 29 29 29 30 30 30 31 31 31 32 32 32 33 33 33 33 34 34 34 34 34 34 34 34 35 35 35 35 35 34 34 34 35 35
6 6 5 6 5 5 5 5 5 5 5 5 5 6 7 6 6 6 7 8 7 6 5 5 5 4 5 4 4 4 5 6 7 7 9 10 11 12 12 12 14 16 17 19 20 22 23 25 26 26 26 27 27 28 28 28 29 30 30 31 31 32 32 32 33 33 33 33 34 34 34 34 34 34 34 34 35 35 35 35 35 34 34 34 35 36
6 5 5 5 5 6 5 5 5 4 5 5 6 7 6 5 5 6 7 8 7 6 5 5 4 4 4 4 4 4 4 5 6 6 6 6 6 6 6 6 8 9 10 11 12 14 18 21 22 23 24 25 26 27 28 28 29 29 30 31 31 32 32 32 33 33 33 33 34 34 34 34 34 34 35 35 35 35 35 35 35 35 34 34 35 35
7 6 6 6 6 6 6 6 6 6 6 6 6 6 5 4 4 5 6 6 6 5 4 5 5 5 4 4 4 4 4 5 5 5 5 5 4 4 4 5 7 8 8 9 9 10 14 15 16 17 20 22 23 25 25 26 28 29 30 31 31 32 32 33 33 33 33 33 34 34 34 34 34 35 35 35 35 35 35 35 35 35 35 35 35 35
7 7 7 7 7 6 6 6 7 7 7 6 5 5 5 5 5 5 5 5 5 4 4 5 5 6 5 4 4 4 4 4 4 4 5 5 4 4 4 6 7 8 7 8 9 10 12 12 11 11 14 16 19 21 24 26 28 29 30 31 32 32 32 33 33 33 33 33 34 34 34 34 34 35 35 35 35 35 34 35 35 35 35 35 35 35
7 7 7 8 8 7 7 6 6 6 6 5 5 5 5 5 5 5 5 5 4 4 4 4 5 6 6 4 4 3 3 3 3 4 5 5 5 4 4 6 8 9 8 8 8 9 9 9 9 10 11 16 20 24 27 28 29 30 31 32 32 32 33 33 33 33 33 33 33 34 34 34 34 34 34 35 35 35 35 35 35 35 35 35 35 35
6 7 7 8 8 8 7 7 6 6 5 5 4 5 5 5 5 4 4 4 3 3 3 4 5 5 5 5 4 3 3 3 3 4 5 6 6 5 5 5 7 9 8 8 8 8 8 9 9 9 11 16 21 26 28 29 30 31 31 32 32 32 33 33 32 32 33 33 33 33 33 33 34 34 34 35 35 35 35 35 35 35 34 34 34 34
7 7 7 8 8 7 7 6 6 6 5 5 4 5 5 5 4 4 4 4 4 3 3 3 4 5 5 5 4 3 2 2 3 4 5 7 7 6 5 5 6 8 8 8 8 8 8 8 9 10 13 20 24 27 29 29 30 31 31 32 32 32 32 32 32 32 33 33 33 33 33 33 33 34 34 35 35 34 34 34 33 33 32 31 31 31
7 7 7 8 7 7 6 6 6 5 5 4 4 4 4 4 4 4 4 4 4 4 4 4 5 5 5 6 5 4 2 2 2 4 6 7 7 6 5 5 6 7 7 8 8 8 8 8 11 14 19 23 26 27 29 29 30 31 32 32 32 32 32 32 32 32 32 32 32 32 32 32 33 33 34 34 34 34 34 34 33 33 32 32 31 31
8 8 8 7 7 7 7 8 7 6 6 5 5 4 4 4 4 4 4 4 4 4 5 5 6 6 6 6 6 4 1 1 2 4 5 7 8 7 5 4 5 6 7 7 7 7 8 8 10 14 19 22 25 27 28 29 30 31 32 32 32 32 32 32 32 32 32 32 32 32 32 32 32 33 33 33 34 34 34 34 33 33 33 33 32 32
9 9 9 8 7 7 8 7 7 7 8 6 5 4 4 4 4 5 4 4 4 5 5 6 7 7 5 6 5 3 1 1 2 3 4 6 7 6 4 4 5 6 8 8 7 7 8 9 9 10 14 20 24 26 28 30 30 31 32 32 32 32 32 32 31 31 31 31 31 31 31 31 32 32 32 33 33 33 34 34 34 34 34 33 33 32
9 10 10 9 9 8 9 8 8 8 9 7 5 4 4 4 4 5 5 5 5 6 6 7 7 6 6 6 5 4 2 2 3 4 4 5 7 7 4 4 5 6 8 8 8 8 9 9 9 10 14 20 24 27 29 30 30 31 31 31 31 31 31 31 31 31 30 31 31 31 31 31 32 32 32 33 33 33 33 33 33 33 33 33 32 32
11 11 10 10 10 10 10 8 6 5 6 6 5 4 4 4 4 5 5 6 6 6 7 6 6 6 5 6 5 4 3 3 3 3 3 5 7 7 4 4 5 7 8 8 8 8 9 9 9 10 14 21 24 27 29 29 30 30 31 31 31 30 30 30 30 30 30 31 31 31 31 32 32 32 32 32 32 33 32 32 32 32 32 32 31 31
13 12 11 11 10 9 7 6 4 4 3 4 4 5 5 5 5 6 5 6 5 5 5 5 6 6 6 6 6 5 4 3 2 2 3 5 6 6 4 4 6 8 8 8 8 9 10 9 9 9 11 17 22 25 27 29 29 29 30 30 30 30 30 30 30 31 31 31 31 32 32 32 32 32 32 32 32 32 32 32 32 32 32 32 32 32
12 12 11 10 10 9 8 7 6 6 5 5 5 5 6 7 7 7 6 6 5 5 5 5 6 7 6 6 5 4 3 3 3 2 3 4 5 6 5 4 5 7 8 8 8 9 9 10 10 9 9 13 18 23 25 27 28 28 28 29 29 29 30 30 31 31 31 32 32 32 32 32 32 32 31 31 31 31 31 31 31 32 32 32 33 32
15 14 14 14 15 16 16 15 14 14 13 10 8 6 6 6 6 6 6 6 6 6 6 6 7 6 5 4 4 4 3 3 3 3 3 3 5 6 6 5 5 7 8 8 8 9 10 10 10 9 8 10 14 19 22 25 26 27 28 28 29 29 30 30 31 31 31 31 31 31 31 31 31 31 31 31 31 31 31 31 31 31 32 32 32 31
23 23 23 23 23 23 23 23 23 23 23 20 16 12 9 6 6 6 8 8 7 7 6 6 6 6 5 4 4 4 3 2 2 2 3 3 5 6 5 5 5 6 8 8 8 9 11 11 10 9 8 8 10 13 19 22 25 26 28 28 29 29 30 30 30 30 30 30 31 31 31 31 31 31 31 30 30 30 30 30 31 31 30 29 27 24
30 30 30 29 29 29 28 28 28 28 28 27 26 23 15 9 7 9 10 7 6 6 6 6 5 5 5 4 4 4 3 3 2 2 2 3 4 5 5 4 5 5 7 7 8 9 11 10 9 9 8 8 8 10 15 19 22 25 26 27 28 29 29 29 29 29 29 30 30 30 30 30 30 30 30 30 30 30 30 30 30 29 27 23 18 14
29 30 31 31 31 31 30 29 28 28 28 29 28 26 19 11 9 8 7 5 5 5 6 5 5 5 5 5 4 4 4 3 3 3 2 3 4 5 4 4 5 5 5 6 7 7 8 7 7 6 7 8 9 9 11 15 17 19 21 24 25 26 27 27 28 28 29 29 29 30 30 30 30 30 30 30 30 30 30 30 29 26 20 16 13 12
20 22 23 24 25 25 24 22 21 22 24 26 26 24 18 10 7 6 4 4 4 4 5 5 5 5 5 4 4 4 4 4 3 3 3 2 3 4 4 5 5 5 5 5 6 6 6 5 5 5 6 8 9 9 9 10 11 12 14 17 19 21 23 25 26 27 28 28 29 29 29 29 29 30 30 30 30 30 29 30 27 22 14 12 11 11
13 13 13 14 15 14 13 12 12 13 16 19 20 18 14 8 5 4 3 4 4 4 4 5 5 5 4 3 4 4 4 3 2 3 3 2 3 4 4 5 5 5 4 4 5 6 7 6 5 5 6 8 9 9 9 9 10 10 10 11 13 15 19 22 24 25 26 26 27 28 28 28 29 29 29 29 29 29 29 29 26 20 13 11 11 11
10 10 10 10 9 8 8 8 8 9 10 11 11 11 10 8 6 4 4 4 5 5 5 5 5 5 4 4 4 5 5 3 2 2 2 2 3 4 4 5 5 5 4 4 4 5 6 6 6 6 7 8 8 8 9 10 9 9 10 10 11 13 17 19 20 21 21 23 24 25 26 27 27 28 28 28 28 28 28 28 25 21 14 12 11 12
10 9 8 8 8 7 7 7 8 8 8 8 8 8 8 8 7 6 5 5 5 5 5 5 5 5 4 5 6 6 6 5 4 4 4 3 3 4 4 5 5 5 5 5 5 5 6 6 7 7 8 8 8 8 9 9 10 10 9 10 10 11 14 15 16 16 16 18 19 20 22 24 25 25 26 27 27 27 27 27 26 23 18 13 12 12
9 9 9 8 8 7 7 7 8 8 8 8 8 8 7 7 7 7 7 6 5 5 5 5 5 5 5 5 6 7 7 6 6 6 5 4 4 4 5 5 5 6 6 5 5 6 6 7 7 8 8 8 8 8 8 9 9 9 8 9 9 10 12 12 12 12 13 14 14 14 16 17 19 21 22 23 24 24 25 26 26 26 24 18 14 12
8 8 8 8 8 7 7 8 8 8 8 8 8 8 8 7 7 7 7 6 6 5 5 5 6 6 6 6 6 7 7 6 6 6 6 4 4 4 5 5 5 6 6 6 6 6 6 7 9 9 9 9 9 8 7 8 8 9 8 9 9 10 10 11 11 11 12 12 11 11 11 12 13 14 16 19 21 23 25 26 26 26 26 23 19 16
7 8 8 8 8 8 8 8 8 8 9 8 8 7 7 7 7 6 6 6 6 6 6 6 6 7 7 7 8 8 8 6 6 6 6 5 4 4 5 5 5 6 6 7 7 6 6 7 9 10 10 10 9 8 7 8 8 9 9 10 10 10 10 11 11 11 11 11 11 10 10 10 11 12 13 17 21 23 25 25 25 25 25 25 23 21
8 8 8 8 7 7 8 8 8 8 8 8 7 7 7 7 7 6 6 6 6 6 7 7 8 8 9 9 9 9 9 7 7 7 7 6 5 5 5 6 6 7 6 7 7 7 7 8 9 10 10 9 9 8 9 9 9 9 10 10 10 10 11 10 10 10 10 11 11 11 11 11 11 12 13 17 19 20 21 22 22 22 23 24 24 24
8 8 9 8 7 7 8 8 8 8 7 7 7 7 7 7 7 7 6 6 7 7 7 7 8 9 12 12 12 11 10 9 9 8 8 6 6 6 7 7 8 8 7 7 7 7 7 8 9 9 9 9 9 10 11 11 11 11 11 11 11 10 10 10 10 10 10 11 12 12 12 12 11 11 12 13 13 13 14 14 15 17 20 20 21 23
9 9 9 9 8 8 8 8 7 7 6 7 6 6 6 6 7 7 6 6 7 7 8 8 8 8 11 12 13 13 13 11 11 10 9 8 7 7 7 8 9 9 8 7 7 7 7 7 8 8 8 9 10 10 10 10 11 12 12 12 11 10 9 9 10 10 11 11 12 12 12 11 10 10 10 10 10 10 11 11 12 13 14 14 15 18
9 9 9 10 9 8 7 7 7 6 5 5 6 6 5 5 5 5 6 6 6 7 7 8 8 8 9 10 11 12 12 10 10 9 8 7 7 7 7 8 9 9 8 7 6 7 7 8 8 9 9 9 9 10 10 10 11 12 13 12 10 9 10 10 10 10 10 10 10 10 10 10 10 10 10 10 10 10 10 10 11 11 12 11 11 12
9 9 9 8 7 7 7 7 6 5 4 4 4 4 5 4 4 4 4 5 5 6 6 6 6 7 8 8 8 9 10 10 10 9 8 8 9 8 7 8 8 8 8 8 7 7 8 8 9 10 9 9 10 11 11 12 13 14 15 13 12 11 12 12 11 10 9 9 10 10 11 11 11 11 11 11 10 10 10 10 11 11 11 9 9 9
10 9 7 5 5 4 4 4 4 5 5 4 4 5 5 5 4 4 4 4 5 5 5 4 5 6 7 8 8 8 8 9 9 10 10 10 10 9 8 8 7 7 7 8 8 8 8 9 9 9 9 9 9 10 10 11 12 13 13 13 13 13 13 12 9 8 9 10 10 11 12 12 11 11 11 11 10 10 10 11 11 12 11 9 9 9
8 6 5 4 4 4 4 4 4 5 4 4 5 5 5 5 4 4 5 5 5 5 5 5 5 5 6 7 7 7 7 8 8 9 10 10 10 10 9 9 8 7 6 7 8 8 9 9 9 9 9 9 9 10 11 11 12 12 12 12 13 12 9 9 9 8 9 10 11 11 11 10 10 10 10 10 10 10 10 11 12 12 11 10 9 9
5 4 4 4 3 3 3 4 4 4 4 5 5 5 5 5 5 5 6 5 5 5 5 5 5 6 8 8 8 7 6 6 7 8 9 10 10 10 9 9 8 7 6 6 6 7 7 8 9 9 8 8 9 9 10 11 11 12 11 12 12 11 10 10 10 11 11 11 11 10 10 11 11 11 11 10 10 9 9 9 9 9 9 9 9 9
4 4 4 4 3 3 4 4 4 4 4 5 5 5 4 5 5 6 5 5 5 5 5 5 5 5 7 7 7 7 6 6 6 6 7 9 11 12 10 8 8 7 7 7 6 6 7 8 8 8 7 8 9 10 10 11 12 12 12 12 12 12 12 12 11 11 11 11 11 11 11 11 11 11 11 10 9 9 8 8 9 8 8 8 8 9
4 4 4 4 4 4 5 4 4 4 4 4 5 5 5 5 5 5 6 6 6 6 5 5 5 6 8 8 7 6 6 6 6 5 5 6 6 7 8 7 7 6 6 6 7 7 7 7 8 8 8 8 9 10 10 10 11 11 12 12 12 11 11 11 11 11 11 11 11 11 12 11 11 10 10 10 10 9 9 9 8 8 8 8 8 8
5 5 5 4 4 4 4 4 4 4 4 5 5 5 5 4 4 4 5 5 6 6 6 6 7 8 10 9 8 7 7 7 7 6 5 5 5 5 5 5 6 6 6 6 6 7 7 8 7 7 7 8 9 10 10 9 10 10 11 11 11 11 11 11 11 10 10 10 11 12 12 11 11 10 11 11 11 10 9 9 8 8 8 8 8 8
5 5 4 4 4 4 4 4 4 4 5 5 5 5 5 5 5 5 5 5 5 5 6 7 8 9 10 10 9 9 9 9 8 7 6 5 5 5 5 4 5 5 6 6 7 8 8 8 8 8 7 8 8 9 9 9 9 9 9 9 10 10 11 11 11 10 10 10 11 12 12 11 11 11 12 12 12 11 10 9 9 8 8 7 7 8
4 4 4 4 4 4 4 4 4 5 6 6 5 5 5 5 7 8 6 5 5 6 7 8 9 9 10 10 9 9 9 9 8 7 6 5 5 5 4 4 4 4 4 5 6 6 7 8 9 9 9 8 8 9 9 9 8 8 7 8 8 9 10 11 11 10 10 11 12 12 12 11 11 11 12 13 13 13 12 11 10 9 8 7 7 7
4 4 4 4 4 4 5 4 5 6 6 6 6 6 5 4 5 6 6 6 6 6 7 8 9 10 10 10 9 9 9 8 8 7 6 5 5 5 4 4 4 4 4 4 4 5 5 5 6 8 10 10 10 9 8 8 8 7 6 6 7 7 8 10 10 10 10 11 12 12 12 11 11 10 11 12 13 13 13 12 10 9 8 7 7 7
5 5 4 4 5 5 5 5 5 6 6 6 6 6 6 5 5 5 6 6 7 7 8 8 9 9 10 10 9 9 9 9 9 8 7 5 5 5 5 4 4 4 5 5 5 5 4 4 5 5 7 10 11 10 7 6 5 6 6 6 6 6 7 8 9 10 11 11 11 11 11 11 10 10 9 10 11 12 12 12 11 10 9 8 8 8
Wind_Direction
242 243 236 221 227 241 249 236 234 240 250 250 248 247 250 253 255 257 259 261 262 264 264 265 266 268 269 273 275 277 278 280 281 283 284 285 286 287 288 288 289 289 290 290 290 290 290 291 292 293 294 295 296 295 295 295 294 293 292 291 290 289 288 288 287 286 286 285 284 284 283 283 283 282 282 281 279 278 277 276 274 273 272 271 271 271
241 244 241 222 224 236 253 240 232 231 243 249 250 250 250 254 256 258 259 259 260 260 262 264 265 265 265 268 272 275 276 278 280 282 283 284 285 286 287 288 289 290 290 291 291 292 293 294 295 296 296 296 296 295 294 293 292 291 290 289 288 287 287 286 286 285 285 285 284 284 284 284 283 283 282 281 280 279 278 277 276 275 274 274 273 273
239 243 241 225 223 232 250 246 237 230 234 245 250 251 252 255 258 261 262 262 261 260 260 262 264 265 265 267 270 273 275 277 279 281 282 284 285 286 287 289 290 291 292 293 294 295 296 296 296 296 295 295 294 293 292 291 290 289 288 288 287 287 286 286 286 286 286 286 286 285 285 285 284 284 282 281 280 279 278 278 277 276 275 275 274 274
238 243 243 236 233 236 245 248 244 239 236 244 249 251 250 253 257 260 261 261 262 262 262 261 262 264 265 265 267 270 273 275 278 280 282 283 285 286 288 290 291 293 294 295 296 296 296 296 295 294 294 293 292 291 291 290 290 289 289 288 288 288 288 288 287 288 288 287 287 287 286 285 284 283 281 280 279 279 278 277 276 276 275 275 275 275
238 241 244 243 244 245 244 244 244 243 243 245 247 248 247 250 255 259 261 261 262 262 263 261 260 259 261 262 265 268 271 274 277 279 281 284 286 288 290 292 294 295 296 296 296 295 295 295 294 293 293 292 292 291 291 291 291 291 290 290 290 290 290 289 289 289 288 288 288 287 286 285 283 282 281 280 279 279 278 278 277 276 276 276 276 276
238 240 242 243 247 250 251 246 243 243 245 245 245 246 247 249 253 257 260 261 261 261 262 261 259 258 258 259 263 267 271 274 277 280 282 285 288 291 293 294 295 295 295 295 295 295 294 294 294 294 293 293 293 293 293 293 293 293 293 292 292 291 291 290 290 289 289 288 288 287 286 286 284 283 282 281 281 280 280 280 279 278 278 278 278 277
243 241 241 245 249 252 255 251 246 242 243 248 250 250 249 249 251 252 253 255 258 260 263 263 261 259 257 258 262 266 270 274 277 281 284 287 290 292 294 294 294 294 294 294 295 295 295 295 295 295 295 295 295 295 295 295 295 295 294 294 293 292 292 291 290 289 288 288 287 287 287 286 286 285 284 283 283 282 282 282 282 280 279 278 278 278
248 247 242 247 252 255 255 252 245 239 237 244 251 255 256 254 252 251 251 252 253 257 261 264 263 260 257 256 259 262 266 271 275 279 283 286 289 291 292 293 293 294 294 294 295 295 296 296 297 297 297 297 297 297 297 296 296 296 295 294 294 293 292 291 290 289 289 288 288 287 287 287 287 286 285 285 284 283 283 283 282 280 279 278 277 277
247 250 248 245 248 254 258 254 246 237 230 237 245 251 257 259 259 258 257 255 253 252 255 260 262 261 258 255 254 257 260 265 270 275 281 284 287 289 291 292 292 293 294 295 295 296 297 297 298 298 298 298 297 297 297 297 296 296 295 294 293 293 292 291 290 290 289 288 288 288 287 287 287 286 285 284 283 282 281 281 280 280 279 278 277 277
242 246 250 247 245 246 253 256 251 240 226 234 240 245 250 256 261 264 265 262 257 251 249 252 257 262 265 259 254 256 262 270 276 281 284 286 288 289 290 291 292 293 294 295 296 297 297 298 298 298 298 297 297 297 296 296 295 295 294 294 293 292 292 291 290 290 289 288 288 287 286 286 285 284 283 282 281 280 279 279 279 279 279 279 278 277
239 241 246 248 246 245 246 252 252 246 230 236 241 243 243 245 250 258 264 264 262 256 249 248 252 260 269 270 267 265 269 276 280 282 284 286 287 289 290 291 292 293 294 295 296 297 297 297 297 297 296 296 296 295 295 295 294 294 294 293 292 292 291 290 289 289 288 287 286 285 285 284 284 283 283 282 282 281 281 280 280 279 279 279 278 276
235 238 241 244 245 245 245 248 249 245 235 236 241 243 241 236 237 243 253 259 261 260 257 255 255 258 264 272 276 278 277 278 279 280 281 283 285 286 289 290 291 292 293 294 295 296 296 296 296 295 295 294 294 294 294 294 293 293 293 292 291 290 290 289 288 287 287 286 285 285 285 285 285 285 285 285 285 284 284 283 282 281 279 277 276 275
232 234 238 241 242 243 243 244 244 240 234 232 235 238 240 234 230 232 242 250 255 258 263 267 269 268 265 266 271 276 277 276 276 277 278 279 280 282 285 287 288 289 291 292 292 293 294 294 294 293 293 293 292 292 293 292 292 292 291 291 290 289 288 288 287 287 287 287 287 288 289 289 288 288 288 287 287 286 286 285 284 283 281 279 277 276
229 231 234 238 240 240 239 238 238 237 233 230 230 233 236 233 230 231 239 247 252 257 263 271 275 277 275 268 265 265 268 271 273 275 275 275 276 279 284 286 287 288 290 290 289 289 291 292 292 291 291 291 291 291 290 290 290 290 290 289 289 289 289 289 289 289 289 290 290 290 291 290 289 289 288 287 287 286 286 285 285 284 282 280 279 278
223 225 230 234 236 236 235 235 236 237 235 230 228 230 234 234 232 232 239 249 254 260 266 272 276 277 275 267 261 256 257 263 269 274 276 276 276 278 285 287 288 288 289 288 288 289 290 290 289 287 287 287 287 287 287 288 289 290 290 290 290 290 290 290 290 290 290 291 290 290 290 289 289 288 288 287 286 284 283 282 282 281 280 278 277 276
219 221 227 232 235 236 234 234 235 238 238 232 227 226 229 231 231 231 237 247 255 262 267 276 281 281 276 265 255 249 251 259 265 273 279 281 281 282 286 289 290 289 289 288 288 289 290 287 284 283 284 285 287 288 289 290 291 292 292 292 292 291 291 291 291 290 290 290 290 290 290 289 289 288 287 286 285 284 282 281 280 278 276 275 273 273
218 221 226 231 235 237 236 235 236 237 237 233 227 224 224 226 227 230 237 245 253 260 262 270 278 283 285 281 268 249 241 255 266 275 281 282 283 285 288 289 289 289 289 287 287 288 288 287 285 285 284 286 287 289 290 291 292 293 294 293 293 293 292 292 292 291 291 291 291 291 290 290 289 288 287 286 286 286 285 284 282 280 278 275 273 272
219 221 224 230 234 237 237 237 238 237 236 233 229 226 223 223 225 229 235 241 248 254 259 262 266 272 281 284 280 265 247 264 276 283 284 283 284 288 291 288 286 285 286 286 285 286 286 285 285 284 284 287 289 290 292 293 294 294 294 294 294 294 294 293 293 293 293 293 292 292 291 291 290 290 290 290 291 291 291 289 288 286 284 281 278 276
219 220 222 228 233 237 238 237 237 236 234 231 226 224 226 226 226 228 233 235 239 244 252 258 260 263 267 272 274 277 282 286 288 286 285 285 287 290 294 288 284 282 282 283 284 285 285 283 283 283 285 288 289 291 292 294 295 295 295 296 296 296 295 295 295 294 294 294 293 292 292 292 292 293 294 295 296 296 295 294 293 292 290 288 284 281
220 221 222 225 230 235 238 238 236 234 233 228 223 219 221 223 224 226 230 233 237 241 245 253 257 260 262 267 271 276 303 311 290 282 282 284 287 289 293 288 284 282 282 282 284 285 284 281 282 284 286 288 289 291 292 294 295 296 296 297 297 297 297 296 296 295 295 294 293 293 293 294 295 297 298 297 297 296 295 294 292 291 290 288 285 282
222 224 223 222 225 231 237 236 234 233 232 228 223 219 220 221 224 227 230 234 239 243 244 250 253 255 259 264 269 276 305 291 281 279 282 284 285 286 290 288 284 283 283 284 284 284 283 282 281 282 284 287 289 291 293 294 295 296 297 297 298 298 298 297 296 296 295 294 294 295 296 296 297 298 297 296 294 293 292 291 290 289 288 286 284 282
223 227 225 223 225 231 237 238 235 230 228 223 219 217 218 219 224 230 231 234 240 244 246 249 252 255 260 267 271 274 266 254 262 274 285 285 284 284 288 286 284 283 284 285 287 286 284 283 282 282 284 287 289 291 293 294 295 296 297 298 298 298 298 297 297 297 296 296 297 297 298 298 298 297 295 294 293 292 292 291 291 291 290 289 287 285
224 229 230 227 229 232 238 238 233 225 220 218 219 221 221 221 227 233 236 238 242 246 249 253 258 264 267 271 272 268 250 239 241 256 275 280 283 285 290 290 286 284 283 287 289 289 287 284 282 282 284 287 289 291 293 294 295 296 297 297 298 298 298 298 299 299 299 299 299 299 299 298 297 296 295 294 294 294 295 296 296 296 296 295 294 292
224 229 232 232 231 232 234 231 226 217 215 220 226 230 233 234 236 239 243 245 248 253 258 265 269 270 267 266 264 259 242 221 211 224 256 272 279 284 291 292 288 285 283 286 289 289 288 284 282 281 282 287 289 291 292 293 295 296 296 297 298 299 299 300 301 301 301 301 300 300 299 298 297 296 296 296 297 298 300 300 301 301 301 300 300 299
221 226 230 230 229 227 224 223 221 221 220 222 228 233 237 240 244 247 250 251 253 256 260 262 262 262 262 259 259 256 242 206 194 206 244 268 277 281 285 288 287 286 285 286 287 288 287 286 285 284 283 285 287 289 291 293 294 295 296 297 298 299 301 301 302 302 301 301 300 299 298 298 297 298 298 299 300 302 303 303 303 303 302 302 302 302
224 225 226 228 228 228 227 228 229 230 230 227 224 222 225 233 239 245 248 247 246 246 246 247 250 253 255 257 258 257 249 211 195 199 226 263 277 281 284 285 284 284 285 287 289 290 289 288 288 286 284 283 286 288 290 292 293 295 296 298 299 300 301 301 301 301 301 300 299 299 298 298 298 299 300 301 302 303 304 304 303 303 302 302 302 302
238 237 237 237 236 236 236 237 239 240 241 240 236 232 226 221 227 236 241 239 234 230 230 235 241 247 252 254 256 257 255 240 217 209 220 258 273 279 282 283 283 284 286 288 289 290 290 289 289 288 286 283 283 285 288 291 293 296 297 299 300 301 301 301 301 300 300 299 299 299 299 299 300 301 302 303 304 304 304 304 303 303 303 302 302 301
249 248 247 247 247 247 247 248 248 249 249 250 249 248 244 233 228 233 238 231 220 213 216 224 233 244 253 256 260 263 264 258 244 229 223 251 266 272 279 282 283 285 288 289 288 287 287 286 287 287 285 283 282 283 287 292 295 297 298 299 300 300 300 300 300 300 299 299 299 299 300 301 301 302 303 304 304 304 304 304 303 303 303 302 300 297
254 254 254 254 254 254 254 254 255 255 255 255 256 256 254 246 238 235 234 211 195 197 211 221 232 244 256 264 271 274 271 260 243 223 207 238 258 268 278 283 285 288 291 292 290 287 283 281 282 283 284 285 286 287 289 294 296 297 298 298 299 299 299 300 300 300 300 300 300 301 301 302 303 303 304 304 304 304 304 304 304 304 303 300 297 294
253 254 255 256 256 257 257 258 258 258 259 259 259 259 258 255 246 235 216 182 180 195 216 229 238 246 257 271 280 280 271 254 224 192 174 224 258 272 282 284 286 288 293 295 295 292 287 282 281 283 287 290 292 292 293 294 294 294 295 297 298 298 299 300 300 300 300 301 301 302 302 302 303 303 303 303 303 303 304 304 305 304 302 298 295 293
243 247 250 253 254 256 257 258 259 260 261 261 261 261 260 256 242 217 190 181 186 201 220 235 243 248 253 266 274 275 271 253 206 169 157 218 261 276 284 284 284 283 285 290 294 296 296 295 293 292 294 295 294 293 292 293 293 294 295 296 296 298 299 300 301 301 301 301 301 301 302 302 302 303 303 303 303 303 304 305 305 305 302 298 295 292
234 237 241 244 246 248 250 251 253 255 256 258 259 259 259 253 238 213 195 193 196 206 221 237 246 252 250 250 254 259 265 258 229 196 188 240 266 275 278 280 281 282 280 276 280 286 294 298 301 303 301 298 296 294 293 293 294 295 296 296 296 298 300 301 302 301 301 300 300 300 301 301 301 302 302 302 302 303 304 305 306 305 303 299 295 293
228 230 233 235 236 237 238 240 242 244 246 248 249 250 252 249 242 230 216 208 205 210 221 237 248 254 253 249 249 252 258 258 251 244 242 251 264 272 275 277 280 282 283 277 272 273 279 289 297 302 301 299 297 296 296 295 295 295 295 296 297 298 301 302 302 300 299 299 299 299 299 300 300 300 301 301 302 303 304 305 305 306 305 302 298 296
224 227 228 230 230 231 231 233 235 237 240 241 241 241 241 242 240 237 231 224 218 215 220 229 238 245 248 249 251 253 256 254 251 248 245 247 258 269 275 276 279 282 286 283 280 278 276 283 291 297 300 299 298 296 296 296 296 296 295 295 296 297 300 302 301 299 298 297 297 296 297 297 298 298 299 300 301 302 303 305 306 307 307 306 304 301
222 225 226 228 228 229 229 230 231 233 236 237 237 237 235 234 235 236 235 232 227 223 222 224 227 231 235 240 247 252 255 253 248 244 242 243 254 267 274 274 278 282 286 286 285 286 284 286 290 295 298 299 298 296 295 296 296 296 294 294 295 296 299 300 300 299 298 297 296 295 295 295 296 297 298 299 300 302 303 305 306 308 309 308 307 305
222 226 228 230 230 230 230 230 231 232 233 234 233 232 231 230 230 231 232 232 231 230 229 227 227 227 228 232 239 247 253 254 251 248 245 245 252 263 271 274 278 282 284 285 285 286 287 289 291 294 296 297 298 298 298 298 297 297 297 297 297 297 297 298 299 298 298 298 297 296 296 296 296 296 297 299 301 302 304 305 307 308 308 308 308 307
225 229 232 232 232 232 233 232 231 230 231 230 229 227 226 226 227 227 229 229 230 232 234 234 233 232 231 233 237 242 250 254 254 252 249 249 253 260 267 273 276 278 279 282 284 286 288 290 292 294 293 293 295 299 302 304 303 301 299 300 300 299 298 299 299 299 299 299 298 298 298 298 297 297 298 300 301 303 304 305 306 307 308 308 307 306
225 230 233 234 233 232 233 233 231 229 227 226 224 223 222 223 225 225 228 227 228 229 234 235 237 237 237 238 240 242 247 251 252 252 250 249 250 255 263 270 273 273 272 275 280 285 287 289 292 294 293 292 292 294 299 303 304 303 301 300 299 298 298 300 302 302 301 300 300 299 299 299 299 299 299 300 302 303 303 304 305 307 308 308 307 306
224 229 233 233 233 232 232 231 230 227 223 221 220 220 220 222 224 226 228 228 229 229 231 234 238 241 241 242 244 245 248 249 249 249 248 246 246 250 257 265 269 270 270 271 274 277 281 283 286 289 292 293 294 294 296 298 299 300 302 302 300 298 298 302 304 304 302 301 300 300 300 300 300 299 299 300 301 302 303 304 305 307 308 308 307 306
223 228 233 234 233 230 228 228 225 222 218 219 220 220 219 221 224 227 230 232 234 235 235 236 240 245 246 247 248 248 248 249 249 248 248 245 244 246 250 258 264 268 271 270 270 270 272 276 278 281 284 287 291 294 296 297 298 301 304 304 304 303 305 306 305 303 301 300 300 301 302 301 300 299 299 300 301 302 303 303 304 305 307 306 306 307
223 228 232 234 232 229 226 223 219 213 209 211 214 217 219 221 224 229 233 235 238 240 239 240 244 249 251 249 247 246 245 247 247 247 247 246 245 245 247 252 257 263 268 269 268 267 268 272 275 278 281 283 287 289 291 293 296 299 302 301 301 301 304 303 302 301 301 301 301 301 302 302 301 301 300 300 299 298 298 298 299 301 302 301 302 304
223 227 228 226 223 218 215 210 206 203 202 204 210 216 218 218 221 225 230 234 236 236 233 233 239 246 251 250 246 242 239 240 241 242 244 244 243 243 244 247 251 256 262 266 267 266 266 269 273 277 280 283 286 289 289 291 294 296 297 297 299 301 301 299 298 300 303 303 302 302 302 301 301 300 299 298 296 295 295 294 295 297 299 300 300 300
222 223 218 211 204 199 195 196 199 201 201 205 213 218 218 217 219 223 230 234 235 235 232 230 233 240 249 251 250 246 240 236 236 237 240 241 240 240 240 242 244 246 250 258 264 266 267 268 270 273 277 281 284 286 288 291 293 294 293 295 299 302 302 301 303 305 303 301 301 301 301 300 299 297 296 295 294 293 292 292 292 294 296 298 298 297
222 220 212 203 196 191 192 196 199 202 204 211 218 223 222 218 220 226 233 237 240 240 237 236 239 245 251 253 255 254 252 245 239 235 237 238 236 235 237 237 237 236 234 243 254 264 270 270 270 271 275 280 282 283 285 288 290 291 292 294 294 294 291 295 300 303 302 300 299 299 299 299 298 297 295 293 292 291 290 290 290 291 293 294 295 295
227 229 227 220 215 209 210 210 209 209 211 218 225 228 227 222 222 226 233 240 243 243 242 242 246 250 252 253 255 257 259 256 250 244 241 242 243 242 239 235 233 230 228 232 240 251 263 269 272 275 278 278 278 279 281 284 287 290 291 292 291 289 285 288 293 297 298 298 298 298 299 299 299 298 295 294 292 291 290 291 291 291 292 293 293 293
236 238 240 237 234 231 228 223 218 216 221 228 232 234 232 226 225 229 235 240 245 247 246 244 247 251 254 255 256 257 259 258 256 253 250 248 246 243 240 235 232 229 228 232 236 242 248 258 268 275 280 279 277 276 276 280 283 286 288 290 290 290 288 288 289 291 293 296 297 299 301 302 301 298 297 297 296 294 292 291 291 292 293 293 292 292
233 235 237 235 233 232 230 225 223 224 230 234 236 237 236 230 229 234 239 242 245 248 250 248 248 250 253 255 256 256 257 259 259 259 257 256 253 249 245 240 234 231 231 234 237 241 244 249 255 263 271 276 278 277 275 275 277 279 282 286 288 289 289 289 289 291 293 295 298 301 306 307 306 303 301 300 299 297 294 292 291 290 290 291 291 291
226 227 226 223 223 224 226 225 226 230 235 239 241 242 240 235 234 238 244 243 245 249 251 251 251 251 253 254 253 253 255 258 259 261 261 262 261 258 252 248 243 239 237 240 243 246 247 245 245 246 251 260 267 273 275 274 273 273 276 281 284 286 287 289 291 295 297 298 300 304 309 311 311 310 308 305 301 298 296 294 293 291 289 289 290 291
216 217 215 214 216 221 225 225 229 234 240 244 247 249 248 245 245 245 249 246 245 247 249 250 251 252 253 253 252 252 254 257 259 261 262 263 265 265 263 258 254 251 251 249 249 250 251 247 241 236 234 240 249 260 268 269 270 270 272 276 280 283 287 290 294 297 299 300 303 306 310 310 310 309 307 304 301 299 298 297 296 294 293 292 290 289
213 211 209 212 217 223 227 228 232 238 243 247 252 254 255 251 248 247 249 249 248 248 248 249 250 251 253 253 253 253 254 256 259 261 262 262 263 264 266 264 263 264 267 265 263 262 262 258 247 237 230 231 236 244 257 263 267 269 270 272 276 281 287 291 294 297 300 302 305 307 309 308 306 305 302 300 299 299 299 299 298 298 299 299 297 294
216 213 212 214 221 226 230 232 235 240 244 249 252 255 257 254 250 248 247 247 248 248 248 248 248 249 251 252 253 253 254 256 259 261 262 263 263 264 265 264 266 269 273 275 275 276 276 277 272 260 245 240 238 239 244 252 263 271 275 275 278 281 286 290 294 297 301 303 304 305 305 304 302 301 299 298 298 299 300 300 301 303 306 308 306 303